Location: Mahannah Oil Field
(37.4664°N, 96.6003°W)
Time: 01:18:07
(UTC+00:00)

deb Explorer IX - Pass Details

Date: 24 January 2021
Orbit: 537 x 1102 km, 38.8° (Epoch: 25 February)

Event Time Altitude Azimuth Distance (km) Brightness Sun altitude
Rises 21:17:07 0° 195° (SSW) 3,880 ? 22.3°
Reaches altitude 10° 21:21:11 10° 175° (S) 2,877 ? 21.8°
Maximum altitude 21:25:03 16° 141° (SE) 2,419 ? 21.3°
Drops below altitude 10° 21:28:44 10° 107° (ESE) 2,718 ? 20.8°
Sets 21:32:23 0° 86° (E) 3,556 ? 20.3°
